Date String (YYYY-MM-DD hh:mm:ss) UTC,Instrument flags,Ambient pressure (hPa),Sample flow (lpm),Bypass flow (lpm),Sample temperature (°C),Ambient temperature (°C),ASC tube jacket temperature (°C),LED temperature (°C),Box temperature (°C),Sample RH (%),Span deviation,Mass concentration (μg/m³),Mass concentration (μg/m³),Mass concentration (μg/m³)
DateTimeUTC,F1_M11,P_M11,Q1_M11,Q2_M11,T1_M11,T2_M11,T3_M11,T4_M11,T5_M11,U1_M11,ZSPAN_M11,X0_M11,X2_M11,X1_M11
2023-01-31 18:00:00,,0825.4,4.98,0.00,22.8,21.4,00.0,31.7,24.5,05.5,0000.5,0013.24,0008.40,0007.86
2023-01-31 18:01:00,,0825.4,4.99,0.00,22.8,21.5,00.0,31.7,24.6,05.5,0000.6,0013.23,0008.43,0007.90
2023-01-31 18:02:00,,0825.4,5.00,0.00,22.8,21.5,00.0,31.7,24.6,05.5,0000.1,0013.25,0008.43,0007.91
2023-01-31 18:03:00,,0825.4,5.01,0.00,22.8,21.5,00.0,31.7,24.6,05.5,0000.7,0013.20,0008.41,0007.89
2023-01-31 18:04:00,,0825.4,4.98,0.00,22.9,21.6,00.0,31.7,24.6,05.6,0000.8,0013.10,0008.43,0007.89
2023-01-31 18:05:00,,0825.4,5.00,0.00,22.9,21.6,00.0,31.7,24.6,05.6,0000.9,0013.00,0008.44,0007.90
2023-01-31 18:06:00,,0825.5,5.03,0.00,22.9,21.6,00.0,31.7,24.6,05.6,0000.7,0013.02,0008.44,0007.90
2023-01-31 18:07:00,,0825.4,4.98,0.00,22.9,21.6,00.0,31.7,24.6,05.6,0001.1,0013.18,0008.45,0007.89
2023-01-31 18:08:00,,0825.3,5.01,0.00,22.9,21.6,00.0,31.7,24.6,05.6,0000.8,0013.14,0008.43,0007.86
2023-01-31 18:09:00,,0825.3,5.02,0.00,22.9,21.6,00.0,31.7,24.6,05.6,0001.2,0012.95,0008.38,0007.84
2023-01-31 18:10:00,,0825.3,5.00,0.00,22.9,21.6,00.0,31.7,24.6,05.6,0000.3,0012.89,0008.39,0007.85
2023-01-31 18:11:00,,0825.3,4.99,0.00,22.9,21.6,00.0,31.7,24.6,05.4,-000.9,0012.73,0008.31,0007.77
2023-01-31 18:12:00,,0825.3,4.99,0.00,22.9,21.6,00.0,31.7,24.7,05.4,-001.4,0012.73,0008.27,0007.71
2023-01-31 18:13:00,,0825.3,5.02,0.00,22.9,21.6,00.0,31.7,24.6,05.5,-001.0,0012.85,0008.23,0007.66
2023-01-31 18:14:00,,0825.3,4.99,0.00,22.9,21.6,00.0,31.7,24.6,05.5,-001.6,0013.25,0008.19,0007.61
2023-01-31 18:15:00,,0825.3,5.01,0.00,22.9,21.6,00.0,31.7,24.6,05.5,-002.2,0013.10,0008.10,0007.54
2023-01-31 18:16:00,,0825.3,4.99,0.00,22.9,21.6,00.0,31.7,24.6,05.5,-002.2,0013.09,0008.05,0007.48
2023-01-31 18:17:00,,0825.3,5.02,0.00,22.9,21.6,00.0,31.7,24.6,05.6,-002.1,0013.48,0008.02,0007.43
2023-01-31 18:18:00,,0825.2,5.01,0.00,22.9,21.6,00.0,31.7,24.6,05.4,-002.1,0013.30,0007.95,0007.36
2023-01-31 18:19:00,,0825.2,4.99,0.00,23.0,21.6,00.0,31.7,24.6,05.4,-001.5,0013.12,0007.86,0007.27
2023-01-31 18:20:00,,0825.2,5.01,0.00,23.0,21.6,00.0,31.7,24.7,05.4,-001.5,0013.11,0007.81,0007.18
2023-01-31 18:21:00,,0825.2,4.97,0.00,23.0,21.6,00.0,31.7,24.7,05.4,-001.3,0013.05,0007.74,0007.10
2023-01-31 18:22:00,,0825.3,5.00,0.00,23.0,21.6,00.0,31.8,24.7,05.4,-000.4,0013.09,0007.71,0007.06
2023-01-31 18:23:00,,0825.3,5.00,0.00,23.0,21.6,00.0,31.8,24.7,05.5,-000.0,0013.05,0007.70,0007.04
2023-01-31 18:24:00,,0825.3,4.99,0.00,23.0,21.6,00.0,31.8,24.7,05.5,-000.1,0012.92,0007.68,0007.03
2023-01-31 18:25:00,,0825.2,5.01,0.00,23.0,21.6,00.0,31.8,24.7,05.6,0000.3,0012.50,0007.66,0007.01
2023-01-31 18:26:00,,0825.2,5.00,0.00,23.0,21.6,00.0,31.8,24.7,05.5,0001.4,0012.57,0007.61,0006.97
2023-01-31 18:27:00,,0825.2,5.02,0.00,23.0,21.6,00.0,31.8,24.7,05.5,0001.3,0013.02,0007.56,0006.92
2023-01-31 18:28:00,,0825.2,4.97,0.00,23.0,21.6,00.0,31.8,24.7,05.4,0000.9,0012.59,0007.48,0006.85
2023-01-31 18:29:00,,0825.2,4.97,0.00,23.0,21.6,00.0,31.8,24.7,05.4,0001.0,0012.52,0007.46,0006.81
2023-01-31 18:30:00,,0825.2,5.04,0.00,23.0,21.6,00.0,31.8,24.7,05.5,0000.9,0013.33,0007.49,0006.81
2023-01-31 18:31:00,,0825.1,4.95,0.00,23.0,21.6,00.0,31.8,24.7,05.4,0000.9,0013.29,0007.47,0006.81
2023-01-31 18:32:00,,0825.0,4.98,0.00,23.0,21.6,00.0,31.8,24.7,05.4,0001.1,0013.30,0007.47,0006.80
2023-01-31 18:33:00,,0825.1,4.98,0.00,23.0,21.6,00.0,31.8,24.7,05.5,0000.7,0013.41,0007.49,0006.82
2023-01-31 18:34:00,,0825.0,5.00,0.00,23.0,21.6,00.0,31.8,24.7,05.5,0000.3,0013.75,0007.51,0006.83
2023-01-31 18:35:00,,0824.9,5.00,0.00,23.0,21.6,00.0,31.8,24.7,05.5,0000.0,0013.75,0007.49,0006.81
2023-01-31 18:36:00,,0825.0,5.00,0.00,23.0,21.7,00.0,31.8,24.7,05.5,-000.3,0013.85,0007.48,0006.82
2023-01-31 18:37:00,,0825.0,5.03,0.00,23.0,21.7,00.0,31.8,24.7,05.5,-000.8,0014.01,0007.55,0006.86
2023-01-31 18:38:00,,0825.0,4.97,0.00,23.0,21.7,00.0,31.8,24.7,05.5,-000.4,0013.86,0007.61,0006.88
2023-01-31 18:39:00,,0824.9,5.01,0.00,23.0,21.7,00.0,31.8,24.7,05.4,-000.1,0013.88,0007.65,0006.91
2023-01-31 18:40:00,,0824.9,5.00,0.00,23.0,21.7,00.0,31.8,24.8,05.5,-000.3,0013.86,0007.65,0006.93
2023-01-31 18:41:00,,0824.9,5.01,0.00,23.0,21.7,00.0,31.8,24.8,05.6,-000.6,0013.31,0007.65,0006.96
2023-01-31 18:42:00,,0824.9,5.01,0.00,23.0,21.7,00.0,31.8,24.8,05.4,-001.0,0013.62,0007.65,0006.96
2023-01-31 18:43:00,,0824.9,4.98,0.00,23.0,21.8,00.0,31.8,24.8,05.6,-001.4,0013.54,0007.63,0006.96
2023-01-31 18:44:00,,0824.9,5.02,0.00,23.0,21.8,00.0,31.8,24.8,05.7,-001.6,0013.45,0007.65,0006.98
2023-01-31 18:45:00,,0824.8,5.02,0.00,23.0,21.7,00.0,31.8,24.8,05.6,-001.4,0013.11,0007.61,0006.97
2023-01-31 18:46:00,,0824.8,4.97,0.00,23.0,21.7,00.0,31.8,24.7,05.6,-001.5,0013.10,0007.58,0006.96
2023-01-31 18:47:00,,0824.7,5.00,0.00,23.0,21.7,00.0,31.8,24.7,05.6,-001.6,0012.95,0007.53,0006.91
2023-01-31 18:48:00,,0824.8,5.03,0.00,23.0,21.7,00.0,31.8,24.7,05.7,-001.5,0012.63,0007.43,0006.85
2023-01-31 18:49:00,,0824.7,5.02,0.00,23.0,21.7,00.0,31.8,24.7,05.7,-001.6,0012.27,0007.35,0006.81
2023-01-31 18:50:00,,0824.8,5.03,0.00,23.0,21.7,00.0,31.8,24.8,05.7,-001.5,0012.12,0007.27,0006.76
2023-01-31 18:51:00,,0824.6,5.02,0.00,23.1,21.7,00.0,31.9,24.8,05.6,-001.4,0012.04,0007.20,0006.71
2023-01-31 18:52:00,,0824.7,5.03,0.00,23.0,21.7,00.0,31.9,24.8,05.4,-001.0,0011.75,0007.09,0006.60
2023-01-31 18:53:00,,0824.6,5.02,0.00,23.0,21.7,00.0,31.9,24.8,05.3,-000.7,0011.28,0006.95,0006.49
2023-01-31 18:54:00,,0824.6,4.99,0.00,23.0,21.7,00.0,31.9,24.7,05.2,-000.5,0011.04,0006.79,0006.34
2023-01-31 18:55:00,,0824.6,5.03,0.00,23.0,21.6,00.0,31.9,24.7,05.3,0000.1,0010.74,0006.60,0006.19
2023-01-31 18:56:00,,0824.6,5.00,0.00,23.0,21.6,00.0,31.9,24.7,05.2,0000.1,0010.47,0006.43,0006.03
2023-01-31 18:57:00,,0824.6,5.04,0.00,23.0,21.6,00.0,31.9,24.7,05.5,0000.6,0010.24,0006.32,0005.92
2023-01-31 18:58:00,,0824.7,5.04,0.00,23.0,21.6,00.0,31.9,24.7,05.5,0000.8,0010.41,0006.23,0005.86
2023-01-31 18:59:00,,0824.7,5.00,0.00,23.0,21.7,00.0,31.8,24.8,05.5,0000.6,0010.20,0006.16,0005.81
